Regional Weather Roundup
Issued by NWS

Home | Current Version | Previous Version | Graphics & Text | Print | Product List | Glossary On
Versions: 1 2 3 4 5 6 7 8 9 10 11 12 13 14 15 16 17 18 19 20 21 22 23 24 25 26 27 28 29 30 31 32 33 34 35 36 37 38 39 40 41 42 43 44 45 46 47 48 49 50
000
ASUS43 KLSX 290659
RWRMO

WEATHER SUMMARY FOR MISSOURI
NATIONAL WEATHER SERVICE SPRINGFIELD MO
200 AM CDT FRI AUG 29 2014

NOTE: "FAIR" INDICATES FEW OR NO CLOUDS BELOW 12,000 FEET WITH NO
       SIGNIFICANT WEATHER AND/OR OBSTRUCTIONS TO VISIBILITY.
       CURRENT SKY AND/OR WEATHER CONDITIONS ARE NOT AVAILABLE FOR
       CHILLICOTHE AND FARMINGTON.

MOZ001>031-035>038-043-044-053-054-290800-
...NORTHERN AND WESTERN MISSOURI...

CITY           SKY/WX    TMP DP  RH WIND       PRES   REMARKS
KANSAS CTY INT CLEAR     72  64  76 SE7       29.87F
KANSAS C DTWN  CLEAR     78  63  59 S8        29.86F
LEE`S SUMMIT   CLEAR     75  64  68 S7        29.90F
ST JOSEPH      PTCLDY    73  66  78 SE6       29.85F
KIRKSVILLE     CLEAR     72  70  93 SE5       29.93F FOG

$$
MOZ066>068-077>081-088>096-101>105-290800-
...SOUTHWEST MISSOURI...

CITY           SKY/WX    TMP DP  RH WIND       PRES   REMARKS
SPRINGFIELD    CLEAR     74  61  63 S9        29.94F
JOPLIN         PTCLDY    75  63  66 S8        29.91F

$$
MOZ032>034-039>042-045>050-055>058-069>072-290800-
...CENTRAL MISSOURI...

CITY           SKY/WX    TMP DP  RH WIND       PRES   REMARKS
COLUMBIA       CLEAR     74  70  87 SE8       29.93F
JEFFERSON CITY CLEAR     75  68  78 E6        29.92F
ROLLA          CLEAR     73  64  73 SE9       29.95F
SEDALIA        CLEAR     75  62  64 S6        29.92S
OSAGE BEACH    CLEAR     75  63  64 S6        29.94S

$$
MOZ051-052-059>065-290800-
...EAST CENTRAL MISSOURI...

CITY           SKY/WX    TMP DP  RH WIND       PRES   REMARKS
ST LOUIS INTL  MOCLDY    77  71  82 SE13      29.97F
SPIRIT OF STL  CLEAR     74  70  87 E3        29.95F
ST CHARLES     PTCLDY    73  71  93 E7        29.96F FOG

$$
MOZ072>076-082>087-097>100-106>115-290800-
...SOUTH CENTRAL AND SOUTHEAST MISSOURI...

CITY           SKY/WX    TMP DP  RH WIND       PRES   REMARKS
CAPE GIRARDEAU CLEAR     70  68  93 CALM      29.98S FOG
FARMINGTON     CLEAR     72  68  88 S5        30.01F
POPLAR BLUFF   MOCLDY    72  68  87 CALM      29.96F FOG
WEST PLAINS    CLEAR     72  63  73 SE5       30.00F

$$


USA.gov is the U.S. government's official web portal to all federal, state and local government web resources and services.